TimeADT,TemperatureF,Dew PointF,Humidity,Sea Level PressureIn,VisibilityMPH,Wind Direction,Wind SpeedMPH,Gust SpeedMPH,PrecipitationIn,Events,Conditions,WindDirDegrees,DateUTC
12:00 AM,52.9,-9999,N/A,29.95,-9999.0,West,4.6,-,N/A,,Unknown,270,2012-10-06 03:00:00
1:00 AM,52.9,-9999,N/A,29.94,-9999.0,West,3.5,-,N/A,,Unknown,280,2012-10-06 04:00:00
2:00 AM,53.4,-9999,N/A,29.96,-9999.0,NNW,2.3,-,N/A,,Unknown,340,2012-10-06 05:00:00
3:00 AM,53,,,29.95,,West,1.2,,,,,260,2012-10-06 06:00:00
3:00 AM,52.5,-9999,N/A,29.95,-9999.0,West,1.2,-,N/A,,Unknown,260,2012-10-06 06:00:00
4:00 AM,50.5,-9999,N/A,29.95,-9999.0,WSW,1.2,-,N/A,,Unknown,240,2012-10-06 07:00:00
5:00 AM,50.9,-9999,N/A,29.96,-9999.0,West,2.3,-,N/A,,Unknown,270,2012-10-06 08:00:00
6:00 AM,52.0,-9999,N/A,29.96,-9999.0,East,1.2,-,N/A,,Unknown,90,2012-10-06 09:00:00
7:00 AM,52.9,-9999,N/A,29.97,-9999.0,ESE,3.5,-,N/A,,Unknown,120,2012-10-06 10:00:00
8:00 AM,55.2,-9999,N/A,29.98,-9999.0,SE,3.5,-,N/A,,Unknown,130,2012-10-06 11:00:00
9:00 AM,57,,,29.98,,SSE,6.9,,,,,150,2012-10-06 12:00:00
9:00 AM,57.4,-9999,N/A,29.98,-9999.0,SSE,6.9,-,N/A,,Unknown,150,2012-10-06 12:00:00
10:00 AM,58.6,-9999,N/A,29.99,-9999.0,SSE,8.1,-,N/A,,Unknown,150,2012-10-06 13:00:00
11:00 AM,59.7,-9999,N/A,29.99,-9999.0,SSE,9.2,-,N/A,,Unknown,160,2012-10-06 14:00:00
12:00 PM,61.2,-9999,N/A,29.97,-9999.0,South,11.5,-,N/A,,Unknown,170,2012-10-06 15:00:00
1:00 PM,60.8,-9999,N/A,29.96,-9999.0,South,12.7,-,N/A,,Unknown,180,2012-10-06 16:00:00
2:00 PM,61.2,-9999,N/A,29.95,-9999.0,South,15.0,-,N/A,,Unknown,180,2012-10-06 17:00:00
3:00 PM,61,,,29.94,,South,15.0,,,,,190,2012-10-06 18:00:00
3:00 PM,61.3,-9999,N/A,29.94,-9999.0,South,15.0,-,N/A,,Unknown,190,2012-10-06 18:00:00
4:00 PM,61.2,-9999,N/A,29.94,-9999.0,South,15.0,-,N/A,,Unknown,190,2012-10-06 19:00:00
5:00 PM,60.8,-9999,N/A,29.93,-9999.0,SSW,13.8,-,N/A,,Unknown,200,2012-10-06 20:00:00
6:00 PM,60.4,-9999,N/A,29.93,-9999.0,SSW,11.5,-,N/A,,Unknown,200,2012-10-06 21:00:00
7:00 PM,60.4,-9999,N/A,29.93,-9999.0,South,12.7,-,N/A,,Unknown,190,2012-10-06 22:00:00
8:00 PM,60.6,-9999,N/A,29.92,-9999.0,South,13.8,-,N/A,,Unknown,180,2012-10-06 23:00:00
9:00 PM,61,,,29.92,,South,16.1,,,,,190,2012-10-07 00:00:00
9:00 PM,61.0,-9999,N/A,29.92,-9999.0,South,16.1,23.0,N/A,,Unknown,190,2012-10-07 00:00:00
10:00 PM,61.0,-9999,N/A,29.92,-9999.0,South,11.5,-,N/A,,Unknown,180,2012-10-07 01:00:00
11:00 PM,61.5,-9999,N/A,29.91,-9999.0,South,17.3,-,N/A,,Unknown,180,2012-10-07 02:00:00